Track COSMOS 2485 (GLONASS) now! COSMOS 2485 (GLONASS) is classified as:
1 39155U 13019A 23084.85866198 .00000017 00000-0 00000-0 0 9993 2 39155 64.8789 113.3408 0024101 235.7603 274.2564 2.13101883 77158